Weather History for KART - November, 2013

Change the Weather History Date:

Friday, November 29, 2013

  Actual Average Record
Temperature  
Mean Temperature 13 °F 33 °F  
Max Temperature 24 °F 41 °F 68 °F (2005)
Min Temperature 2 °F 25 °F 1 °F (1974)
Degree Days  
Heating Degree Days 52 32  
Month to date heating degree days 839 770  
Since 1 July heating degree days 1527 1566  
Cooling Degree Days 0 0  
Month to date cooling degree days 0 0  
Year to date cooling degree days 481 362  
Moisture  
Dew Point 6 °F    
Average Humidity 71    
Maximum Humidity 91    
Minimum Humidity 50    
Precipitation  
Precipitation 0.00 in 0.12 in 2.97 in (1963)
Month to date precipitation 3.15 3.64  
Year to date precipitation 32.34 32.81  
Sea Level Pressure  
Sea Level Pressure 30.67 in    
Wind  
Wind Speed 2 mph (ENE)    
Max Wind Speed 7 mph    
Max Gust Speed 9 mph    
Visibility 10 miles    
Events      
T = Trace of Precipitation, MM = Missing Value Source: NWS Daily Summary

Daily Weather History Graph

Daily Weather History Graph

Search for Another Location

Airport or City:

Trip Planner

Search our weather history database for the weather conditions in past years. The results will help you decide how hot, cold, wet, or windy it might be!

Date:

Astronomy

Nov. 29, 2013 Rise Set
Actual Time 7:16 AM EST 4:28 PM EST
Civil Twilight 6:44 AM EST 5:00 PM EST
Nautical Twilight 6:08 AM EST 5:36 PM EST
Astronomical Twilight 5:33 AM EST 6:10 PM EST
Moon 3:12 AM EST (11/29) 2:17 PM EST (11/29)
Length of Visible Light 10h 15m
Length of Day
9h 11m
Waning Crescent, 14% of the Moon is Illuminated
Nov 29
Waning Crescent
Dec 2
New
Dec 9
First Quarter
Dec 17
Full
Dec 25
Last Quarter

Hourly Weather History & Observations

Time (EST) Temp. Windchill Dew Point Humidity Pressure Visibility Wind Dir Wind Speed Gust Speed Precip Events Conditions
12:56 AM 12.9 °F - 9.0 °F 84% 30.47 in 10.0 mi Calm Calm - N/A   Overcast
1:56 AM 15.1 °F - 10.9 °F 84% 30.50 in 10.0 mi Calm Calm - N/A   Overcast
2:56 AM 14.0 °F - 10.0 °F 84% 30.51 in 10.0 mi Calm Calm - N/A   Overcast
3:56 AM 15.1 °F 6.4 °F 8.1 °F 74% 30.52 in 10.0 mi NE 5.8 mph - N/A   Overcast
4:56 AM 10.9 °F 4.7 °F 5.0 °F 77% 30.54 in 10.0 mi NE 3.5 mph - N/A   Mostly Cloudy
5:56 AM 8.1 °F - 3.9 °F 83% 30.56 in 10.0 mi Calm Calm - N/A   Clear
6:56 AM 9.0 °F 2.4 °F 5.0 °F 84% 30.59 in 10.0 mi NE 3.5 mph - N/A   Clear
7:56 AM 5.0 °F -2.1 °F 1.9 °F 87% 30.62 in 10.0 mi ENE 3.5 mph - N/A   Clear
8:56 AM 10.0 °F - 6.1 °F 84% 30.65 in 10.0 mi Calm Calm - N/A   Clear
9:56 AM 18.0 °F - 8.1 °F 65% 30.67 in 10.0 mi Calm Calm - N/A   Clear
10:56 AM 19.0 °F 11.1 °F 9.0 °F 65% 30.68 in 10.0 mi NNE 5.8 mph - N/A   Clear
11:56 AM 19.9 °F 13.4 °F 10.0 °F 65% 30.68 in 10.0 mi ENE 4.6 mph - N/A   Clear
12:56 PM 23.0 °F - 10.0 °F 58% 30.68 in 10.0 mi Calm Calm - N/A   Clear
1:56 PM 23.0 °F - 9.0 °F 55% 30.68 in 10.0 mi Calm Calm - N/A   Mostly Cloudy
2:19 PM 24.8 °F 20.5 °F 8.6 °F 50% 30.66 in 10.0 mi North 3.5 mph - N/A   Overcast
2:56 PM 23.0 °F 17.0 °F 6.1 °F 48% 30.70 in 10.0 mi NNW 4.6 mph - N/A   Scattered Clouds
3:56 PM 19.9 °F - 6.1 °F 55% 30.72 in 10.0 mi Calm Calm - N/A   Clear
4:56 PM 16.0 °F - 5.0 °F 62% 30.74 in 10.0 mi Calm Calm - N/A   Clear
5:56 PM 7.0 °F - 5.0 °F 92% 30.76 in 10.0 mi Calm Calm - N/A   Clear
6:56 PM 6.1 °F -0.9 °F 3.0 °F 87% 30.78 in 10.0 mi East 3.5 mph - N/A   Clear
7:56 PM 6.1 °F -2.8 °F 3.0 °F 87% 30.78 in 10.0 mi East 4.6 mph - N/A   Clear
8:56 PM 3.0 °F -6.4 °F -0.0 °F 87% 30.79 in 10.0 mi East 4.6 mph - N/A   Clear
9:56 PM 5.0 °F -2.1 °F 1.0 °F 84% 30.79 in 10.0 mi East 3.5 mph - N/A   Clear
10:56 PM 3.9 °F -5.3 °F 1.0 °F 88% 30.80 in 10.0 mi East 4.6 mph - N/A   Clear
11:56 PM 3.9 °F -6.9 °F -0.0 °F 84% 30.79 in 10.0 mi East 5.8 mph - N/A   Clear